This demonstration page uses our WeatherBlox Daily Observations layout. Learn more.

Left ArrowRight Arrow

Hourly Observations for February 17, 2016

Temp ( °F °C ) Dew Point ( °F °C ) Humidity (%) Winds ( mph kmh ) Pressure ( in mb ) Visibility ( mi km ) Precip ( " mm )
12:53 am 00:53 Clear 53 11.7 48 8.9 83 83 Calm 29.67 1005 10 16 0.00 0.00
1:53 am 01:53 Clear 54 12.2 47 8.3 77 77 N 3 6 29.68 1005 10 16 0.00 0.00
2:53 am 02:53 Clear 53 11.7 48 8.9 83 83 NW 3 6 29.63 1003 10 16 0.00 0.00
3:53 am 03:53 Mostly Clear 55 12.8 47 8.3 74 74 WNW 8 13 29.62 1003 10 16 0.00 0.00
4:53 am 04:53 Cloudy 57 13.9 47 8.3 69 69 Calm 29.62 1003 10 16 0.00 0.00
5:53 am 05:53 Mostly Cloudy 55 12.8 49 9.4 80 80 Calm 29.61 1003 10 16 0.00 0.00
6:53 am 06:53 Cloudy with Light Rain 57 13.9 49 9.4 74 74 WNW 5 7 29.62 1003 10 16 0.00 0.03
7:53 am 07:53 Cloudy 55 12.8 51 10.6 87 87 Calm 29.59 1002 10 16 0.01 0.25
8:53 am 08:53 Cloudy with Light Rain 57 13.9 52 11.1 83 83 Calm 29.58 1002 7 11 0.02 0.51
9:53 am 09:53 Cloudy with Light Rain 57 13.9 53 11.7 87 87 N 3 6 29.58 1002 5 8 0.02 0.51
10:53 am 10:53 Cloudy with Light Rain 58 14.4 54 12.2 87 87 W 5 7 29.57 1001 5 8 0.01 0.25
11:53 am 11:53 Cloudy with Haze 61 16.1 54 12.2 78 78 S 9 15 29.54 1000 5 8 0.00 0.03
12:53 pm 12:53 Cloudy 63 17.2 51 10.6 65 65 S 9 15 29.49 999 10 16 0.00 0.03
1:53 pm 13:53 Cloudy 62 16.7 50 10 65 65 S 12 19 29.46 998 10 16 0.00 0.03
2:53 pm 14:53 Mostly Cloudy 63 17.2 47 8.3 56 56 SSE 23 37 29.41 996 10 16 0.00 0.03
3:53 pm 15:53 Cloudy with Light Rain 62 16.7 47 8.3 58 58 SSE 25 41 29.37 995 10 16 0.00 0.03
4:53 pm 16:53 Mostly Cloudy 61 16.1 49 9.4 65 65 SSE 28 44 29.34 994 10 16 0.05 1.27
5:53 pm 17:53 Cloudy 59 15 50 10 72 72 SSE 23 37 29.33 993 10 16 0.00 0.00
6:53 pm 18:53 Cloudy with Rain 56 13.3 44 6.7 65 65 WSW 18 30 29.36 994 8 13 0.00 0.03
7:00 pm 19:00 Cloudy with Heavy Rain 54 12 45 7 72 72 WSW 13 20 29.38 995 4 6 0.00 0.00
7:53 pm 19:53 Cloudy with Light Rain 52 11.1 45 7.2 77 77 Calm 29.39 995 10 16 0.14 3.56
8:53 pm 20:53 Cloudy 51 10.6 39 3.9 64 64 Calm 29.42 996 10 16 0.00 0.03
9:53 pm 21:53 Mostly Cloudy 49 9.4 43 6.1 80 80 ENE 8 13 29.44 997 10 16 0.00 0.00
10:53 pm 22:53 Mostly Cloudy 49 9.4 42 5.6 77 77 E 5 7 29.46 998 10 16 0.00 0.00
11:53 pm 23:53 Cloudy 48 8.9 41 5 77 77 SSE 3 6 29.51 999 10 16 0.00 0.00

Powered by AerisWeather